GPS BIIF-4

Last updated on Fri Dec 12 2025 00:02:35 GMT+0000 (Coordinated Universal Time)

1 39166U 13023A 25345.21943646 -.00000067 00000+0 00000+0 0 9990 2 39166 54.6533 276.6300 0137798 48.5969 312.5932 2.00565140 92114
UTC large
Height (km)
Speed (km/s)
/
Latitude / Longitude
Inclination (degrees)
Orbital Period (minutes)
Azimuth
Elevation
Range (km)
Doppler Factor

Next 0 passes for location: London (51.5072 / 0.1276)

Sorry there are no passes over London.